{"data":{"norad_id":54797,"epoch":"2026-09-20T13:15:41.905440Z","epoch_age_seconds":88829,"freshness":"FRESH","line1":"1 54797U 22175AR  26263.55256835  .00000810  00000+0  35116-4 0  9995","line2":"2 54797  53.1590 237.6705 0001334  90.7011 269.4144 15.34393036209497","mean_motion":15.34393036,"eccentricity":0.0001334,"inclination_deg":53.159,"raan_deg":237.6705,"arg_perigee_deg":90.7011,"mean_anomaly_deg":269.4144,"bstar":3.5116e-5,"rev_number":20949,"period_min":93.848184019,"perigee_km":461.81136791176,"apogee_km":463.63650961022,"semimajor_km":6840.860938761,"source":"CELESTRAK","updated_at":"2026-09-21T09:00:33.128228Z"}}